KINEIS-1B

Last updated on Mon Dec 15 2025 00:02:49 GMT+0000 (Coordinated Universal Time)

1 60079U 24114A 25348.32999479 .00001440 00000+0 19658-3 0 9998 2 60079 97.9984 8.3081 0002258 9.2868 350.8386 14.80167354 80055
UTC large
Height (km)
Speed (km/s)
/
Latitude / Longitude
Inclination (degrees)
Orbital Period (minutes)
Azimuth
Elevation
Range (km)
Doppler Factor

Next 0 passes for location: London (51.5072 / 0.1276)

Sorry there are no passes over London.